Time,TemperatureF,DewpointF,PressureIn,WindDirection,WindDirectionDegrees,WindSpeedMPH,WindSpeedGustMPH,Humidity,HourlyPrecipIn,Conditions,Clouds,dailyrainin,SoftwareType,DateUTC
2013-01-10 00:02:00,31.0,31.0,-100.00,ENE,75,5.0,6.0,99,0.00,,,-99.99,,2013-01-10 06:02:00,
2013-01-10 00:12:00,31.0,31.0,-100.00,East,80,4.0,6.0,99,0.00,,,-99.99,,2013-01-10 06:12:00,
2013-01-10 00:22:00,32.0,32.0,-100.00,East,90,4.0,6.0,99,0.00,,,-99.99,,2013-01-10 06:22:00,
2013-01-10 00:32:00,32.0,31.0,-100.00,ENE,75,4.0,6.0,99,0.00,,,-99.99,,2013-01-10 06:32:00,
2013-01-10 00:42:00,32.0,31.0,-100.00,ENE,75,4.0,6.0,99,0.00,,,-99.99,,2013-01-10 06:42:00,
2013-01-10 00:52:00,32.0,31.0,-100.00,East,80,3.0,6.0,97,0.00,,,-99.99,,2013-01-10 06:52:00,
2013-01-10 01:02:00,32.0,31.0,-100.00,East,80,3.0,6.0,97,0.00,,,-99.99,,2013-01-10 07:02:00,
2013-01-10 01:12:00,32.0,31.0,-100.00,ENE,60,2.0,4.0,95,0.00,,,-99.99,,2013-01-10 07:12:00,
2013-01-10 01:22:00,32.0,31.0,-100.00,ENE,70,1.0,4.0,96,0.00,,,-99.99,,2013-01-10 07:22:00,
2013-01-10 01:32:00,33.0,31.0,-100.00,ESE,120,2.0,4.0,90,0.00,,,-99.99,,2013-01-10 07:32:00,
2013-01-10 01:42:00,33.0,31.0,-100.00,ESE,120,2.0,4.0,90,0.00,,,-99.99,,2013-01-10 07:42:00,
2013-01-10 01:52:00,33.0,31.0,-100.00,East,80,1.0,3.0,90,0.00,,,-99.99,,2013-01-10 07:52:00,
2013-01-10 02:02:00,33.0,31.0,-100.00,East,80,1.0,3.0,90,0.00,,,-99.99,,2013-01-10 08:02:00,
2013-01-10 02:11:00,33.0,30.0,-100.00,East,95,1.0,2.0,90,0.00,,,-99.99,,2013-01-10 08:11:00,
2013-01-10 02:22:00,31.0,29.0,-100.00,ENE,65,0.0,3.0,93,0.00,,,-99.99,,2013-01-10 08:22:00,
2013-01-10 02:32:00,30.0,29.0,-100.00,NW,305,0.0,3.0,94,0.00,,,-99.99,,2013-01-10 08:32:00,
2013-01-10 02:42:00,30.0,29.0,-100.00,NW,305,0.0,3.0,94,0.00,,,-99.99,,2013-01-10 08:42:00,
2013-01-10 02:52:00,31.0,30.0,-100.00,West,260,0.0,2.0,96,0.00,,,-99.99,,2013-01-10 08:52:00,
2013-01-10 03:02:00,31.0,30.0,-100.00,West,260,0.0,2.0,96,0.00,,,-99.99,,2013-01-10 09:02:00,
2013-01-10 03:12:00,30.0,29.0,-100.00,WSW,240,2.0,4.0,98,0.00,,,-99.99,,2013-01-10 09:12:00,
2013-01-10 03:22:00,30.0,29.0,-100.00,SW,230,2.0,4.0,98,0.00,,,-99.99,,2013-01-10 09:22:00,
2013-01-10 03:32:00,30.0,30.0,-100.00,SSW,200,0.0,1.0,98,0.00,,,-99.99,,2013-01-10 09:32:00,
2013-01-10 03:42:00,30.0,30.0,-100.00,SSW,200,0.0,1.0,98,0.00,,,-99.99,,2013-01-10 09:42:00,
2013-01-10 03:52:00,30.0,29.0,-100.00,WNW,295,0.0,1.0,96,0.00,,,-99.99,,2013-01-10 09:52:00,
2013-01-10 04:03:00,30.0,29.0,-100.00,WNW,295,0.0,1.0,96,0.00,,,-99.99,,2013-01-10 10:03:00,
2013-01-10 04:12:00,29.0,29.0,-100.00,East,85,2.0,3.0,99,0.00,,,-99.99,,2013-01-10 10:12:00,
2013-01-10 04:22:00,30.0,29.0,-100.00,East,85,1.0,3.0,97,0.00,,,-99.99,,2013-01-10 10:22:00,
2013-01-10 04:32:00,30.0,29.0,-100.00,ENE,75,1.0,2.0,96,0.00,,,-99.99,,2013-01-10 10:32:00,
2013-01-10 04:42:00,30.0,29.0,-100.00,ENE,75,1.0,2.0,96,0.00,,,-99.99,,2013-01-10 10:42:00,
2013-01-10 04:52:00,30.0,29.0,-100.00,NE,55,0.0,3.0,96,0.00,,,-99.99,,2013-01-10 10:52:00,
2013-01-10 05:02:00,30.0,29.0,-100.00,NE,55,0.0,3.0,96,0.00,,,-99.99,,2013-01-10 11:02:00,
2013-01-10 05:12:00,29.0,28.0,-100.00,ENE,65,4.0,4.0,99,0.00,,,-99.99,,2013-01-10 11:12:00,
2013-01-10 05:22:00,28.0,28.0,-100.00,ENE,70,4.0,5.0,99,0.00,,,-99.99,,2013-01-10 11:22:00,
2013-01-10 05:32:00,29.0,29.0,-100.00,ENE,70,2.0,4.0,99,0.00,,,-99.99,,2013-01-10 11:32:00,
2013-01-10 05:42:00,29.0,29.0,-100.00,ENE,70,2.0,4.0,99,0.00,,,-99.99,,2013-01-10 11:42:00,
2013-01-10 05:52:00,29.0,29.0,-100.00,ENE,75,2.0,4.0,99,0.00,,,-99.99,,2013-01-10 11:52:00,
2013-01-10 06:02:00,29.0,29.0,-100.00,ENE,75,2.0,4.0,99,0.00,,,-99.99,,2013-01-10 12:02:00,
2013-01-10 06:12:00,30.0,30.0,-100.00,East,100,2.0,4.0,99,0.00,,,-99.99,,2013-01-10 12:12:00,
2013-01-10 06:22:00,30.0,30.0,-100.00,East,85,2.0,4.0,99,0.00,,,-99.99,,2013-01-10 12:22:00,
2013-01-10 06:32:00,30.0,30.0,-100.00,NE,50,2.0,4.0,99,0.00,,,-99.99,,2013-01-10 12:32:00,
2013-01-10 06:42:00,30.0,30.0,-100.00,NE,50,2.0,4.0,99,0.00,,,-99.99,,2013-01-10 12:42:00,
2013-01-10 06:52:00,31.0,31.0,-100.00,East,85,2.0,4.0,99,0.00,,,-99.99,,2013-01-10 12:52:00,
2013-01-10 07:02:00,31.0,31.0,-100.00,East,85,2.0,4.0,99,0.00,,,-99.99,,2013-01-10 13:02:00,
2013-01-10 07:12:00,31.0,31.0,-100.00,ESE,120,1.0,4.0,97,0.00,,,-99.99,,2013-01-10 13:12:00,
2013-01-10 07:22:00,32.0,31.0,-100.00,East,95,2.0,6.0,96,0.00,,,-99.99,,2013-01-10 13:22:00,
2013-01-10 07:32:00,31.0,30.0,-100.00,SE,130,4.0,6.0,96,0.00,,,-99.99,,2013-01-10 13:32:00,
2013-01-10 07:42:00,31.0,30.0,-100.00,SE,130,4.0,6.0,96,0.00,,,-99.99,,2013-01-10 13:42:00,
2013-01-10 07:52:00,31.0,30.0,-100.00,SE,130,4.0,8.0,95,0.00,,,-99.99,,2013-01-10 13:52:00,
2013-01-10 08:02:00,31.0,30.0,-100.00,SE,130,4.0,8.0,95,0.00,,,-99.99,,2013-01-10 14:02:00,
2013-01-10 08:12:00,32.0,30.0,-100.00,SE,135,6.0,9.0,94,0.00,,,-99.99,,2013-01-10 14:12:00,
2013-01-10 08:22:00,32.0,30.0,-100.00,SE,135,6.0,11.0,93,0.00,,,-99.99,,2013-01-10 14:22:00,
2013-01-10 08:33:00,32.0,30.0,-100.00,SE,135,6.0,9.0,92,0.00,,,-99.99,,2013-01-10 14:33:00,
2013-01-10 08:43:00,32.0,30.0,-100.00,SE,135,6.0,9.0,92,0.00,,,-99.99,,2013-01-10 14:43:00,
2013-01-10 08:53:00,32.0,30.0,-100.00,SE,130,6.0,9.0,91,0.00,,,-99.99,,2013-01-10 14:53:00,
2013-01-10 09:03:00,32.0,30.0,-100.00,SE,130,6.0,9.0,91,0.00,,,-99.99,,2013-01-10 15:03:00,
2013-01-10 09:12:00,32.0,30.0,-100.00,SE,130,6.0,11.0,91,0.00,,,-99.99,,2013-01-10 15:12:00,
2013-01-10 09:22:00,33.0,31.0,-100.00,SE,130,6.0,9.0,91,0.00,,,-99.99,,2013-01-10 15:22:00,
2013-01-10 09:33:00,34.0,31.0,-100.00,ESE,115,6.0,9.0,87,0.00,,,-99.99,,2013-01-10 15:33:00,
2013-01-10 09:43:00,34.0,31.0,-100.00,ESE,115,6.0,9.0,87,0.00,,,-99.99,,2013-01-10 15:43:00,
2013-01-10 09:53:00,35.0,31.0,-100.00,SE,130,7.0,14.0,82,0.00,,,-99.99,,2013-01-10 15:53:00,
2013-01-10 10:02:00,35.0,31.0,-100.00,SE,130,7.0,14.0,82,0.00,,,-99.99,,2013-01-10 16:02:00,
2013-01-10 10:12:00,36.0,30.0,-100.00,SE,140,6.0,14.0,79,0.00,,,-99.99,,2013-01-10 16:12:00,
2013-01-10 10:22:00,36.0,31.0,-100.00,SE,135,6.0,12.0,79,0.00,,,-99.99,,2013-01-10 16:22:00,
2013-01-10 10:33:00,38.0,30.0,-100.00,SE,130,9.0,16.0,73,0.00,,,-99.99,,2013-01-10 16:33:00,
2013-01-10 10:42:00,38.0,30.0,-100.00,SE,130,9.0,16.0,73,0.00,,,-99.99,,2013-01-10 16:42:00,
2013-01-10 10:52:00,37.0,29.0,-100.00,SE,130,9.0,13.0,73,0.00,,,-99.99,,2013-01-10 16:52:00,
2013-01-10 11:03:00,37.0,29.0,-100.00,SE,130,9.0,13.0,73,0.00,,,-99.99,,2013-01-10 17:03:00,
2013-01-10 11:12:00,38.0,29.0,-100.00,SE,135,11.0,13.0,70,0.00,,,-99.99,,2013-01-10 17:12:00,
2013-01-10 11:22:00,38.0,29.0,-100.00,SE,130,11.0,16.0,70,0.00,,,-99.99,,2013-01-10 17:22:00,
2013-01-10 11:33:00,38.0,29.0,-100.00,SSE,150,8.0,15.0,70,0.00,,,-99.99,,2013-01-10 17:33:00,
2013-01-10 11:42:00,38.0,29.0,-100.00,SSE,150,8.0,15.0,70,0.00,,,-99.99,,2013-01-10 17:42:00,
2013-01-10 11:53:00,38.0,29.0,-100.00,SE,135,10.0,15.0,68,0.00,,,-99.99,,2013-01-10 17:53:00,
2013-01-10 12:03:00,38.0,29.0,-100.00,SE,135,10.0,15.0,68,0.00,,,-99.99,,2013-01-10 18:03:00,
2013-01-10 12:12:00,38.0,29.0,-100.00,SE,130,9.0,14.0,68,0.00,,,-99.99,,2013-01-10 18:12:00,
2013-01-10 12:23:00,39.0,29.0,-100.00,SE,125,9.0,14.0,67,0.00,,,-99.99,,2013-01-10 18:23:00,
2013-01-10 12:33:00,39.0,28.0,-100.00,ESE,115,11.0,17.0,66,0.00,,,-99.99,,2013-01-10 18:33:00,
2013-01-10 12:43:00,39.0,28.0,-100.00,ESE,115,11.0,17.0,66,0.00,,,-99.99,,2013-01-10 18:43:00,
2013-01-10 12:52:00,39.0,29.0,-100.00,SE,135,12.0,19.0,66,0.00,,,-99.99,,2013-01-10 18:52:00,
2013-01-10 13:03:00,39.0,29.0,-100.00,SE,135,12.0,19.0,66,0.00,,,-99.99,,2013-01-10 19:03:00,
2013-01-10 13:12:00,39.0,28.0,-100.00,SE,135,13.0,17.0,64,0.00,,,-99.99,,2013-01-10 19:12:00,
2013-01-10 13:23:00,39.0,28.0,-100.00,SE,125,12.0,18.0,65,0.00,,,-99.99,,2013-01-10 19:23:00,
2013-01-10 13:33:00,39.0,29.0,-100.00,SE,130,12.0,17.0,66,0.00,,,-99.99,,2013-01-10 19:33:00,
2013-01-10 13:43:00,39.0,29.0,-100.00,SE,130,12.0,17.0,66,0.00,,,-99.99,,2013-01-10 19:43:00,
2013-01-10 13:52:00,40.0,29.0,-100.00,SE,125,10.0,15.0,64,0.00,,,-99.99,,2013-01-10 19:52:00,
2013-01-10 14:03:00,40.0,29.0,-100.00,SE,125,10.0,15.0,64,0.00,,,-99.99,,2013-01-10 20:03:00,
2013-01-10 14:12:00,40.0,29.0,-100.00,ESE,120,11.0,16.0,65,0.00,,,-99.99,,2013-01-10 20:12:00,
2013-01-10 14:23:00,39.0,30.0,-100.00,SE,130,9.0,14.0,69,0.00,,,-99.99,,2013-01-10 20:23:00,
2013-01-10 14:33:00,38.0,37.0,-100.00,SSE,150,9.0,15.0,97,0.27,,,-99.99,,2013-01-10 20:33:00,
2013-01-10 14:42:00,38.0,37.0,-100.00,SSE,150,9.0,15.0,97,0.27,,,-99.99,,2013-01-10 20:42:00,
2013-01-10 14:53:00,37.0,37.0,-100.00,SE,140,7.0,14.0,99,0.00,,,-99.99,,2013-01-10 20:53:00,
2013-01-10 15:03:00,37.0,37.0,-100.00,SE,140,7.0,14.0,99,0.00,,,-99.99,,2013-01-10 21:03:00,
2013-01-10 15:12:00,36.0,36.0,-100.00,SE,130,7.0,16.0,99,0.00,,,-99.99,,2013-01-10 21:12:00,
2013-01-10 15:23:00,36.0,36.0,-100.00,SE,130,9.0,14.0,99,0.18,,,-99.99,,2013-01-10 21:23:00,
2013-01-10 15:33:00,36.0,36.0,-100.00,SE,130,7.0,11.0,99,0.17,,,-99.99,,2013-01-10 21:33:00,
2013-01-10 15:52:00,36.0,36.0,-100.00,SE,130,10.0,19.0,99,0.21,,,-99.99,,2013-01-10 21:52:00,
2013-01-10 16:03:00,36.0,36.0,-100.00,SE,130,10.0,19.0,99,0.21,,,-99.99,,2013-01-10 22:03:00,
2013-01-10 16:12:00,36.0,36.0,-100.00,SE,125,7.0,10.0,99,0.14,,,-99.99,,2013-01-10 22:12:00,
2013-01-10 16:33:00,36.0,36.0,-100.00,SE,125,6.0,11.0,99,0.21,,,-99.99,,2013-01-10 22:33:00,
2013-01-10 16:43:00,35.0,35.0,-100.00,SE,135,4.0,9.0,99,0.18,,,-99.99,,2013-01-10 22:43:00,
2013-01-10 17:02:00,35.0,35.0,-100.00,SE,130,5.0,9.0,99,0.17,,,-99.99,,2013-01-10 23:02:00,
2013-01-10 17:12:00,35.0,35.0,-100.00,SE,130,7.0,10.0,99,0.00,,,-99.99,,2013-01-10 23:12:00,
2013-01-10 17:22:00,35.0,35.0,-100.00,SE,130,6.0,10.0,99,0.00,,,-99.99,,2013-01-10 23:22:00,
2013-01-10 17:33:00,35.0,35.0,-100.00,SE,130,7.0,9.0,99,0.00,,,-99.99,,2013-01-10 23:33:00,
2013-01-10 17:42:00,35.0,35.0,-100.00,SE,130,7.0,9.0,99,0.00,,,-99.99,,2013-01-10 23:42:00,
2013-01-10 17:53:00,35.0,35.0,-100.00,SE,135,7.0,13.0,99,0.00,,,-99.99,,2013-01-10 23:53:00,
2013-01-10 18:02:00,35.0,35.0,-100.00,SE,135,7.0,13.0,99,0.00,,,-99.99,,2013-01-11 00:02:00,
2013-01-10 18:12:00,35.0,35.0,-100.00,SE,130,7.0,10.0,99,0.34,,,-99.99,,2013-01-11 00:12:00,
2013-01-10 18:23:00,35.0,35.0,-100.00,SE,140,4.0,9.0,99,0.00,,,-99.99,,2013-01-11 00:23:00,
2013-01-10 18:33:00,35.0,35.0,-100.00,SE,125,5.0,9.0,99,0.27,,,-99.99,,2013-01-11 00:33:00,
2013-01-10 18:42:00,35.0,35.0,-100.00,SE,125,5.0,9.0,99,0.27,,,-99.99,,2013-01-11 00:42:00,
2013-01-10 18:52:00,35.0,35.0,-100.00,SE,125,4.0,9.0,99,0.00,,,-99.99,,2013-01-11 00:52:00,
2013-01-10 19:03:00,35.0,35.0,-100.00,SE,125,4.0,9.0,99,0.00,,,-99.99,,2013-01-11 01:03:00,
2013-01-10 19:12:00,35.0,35.0,-100.00,SE,135,6.0,9.0,99,0.00,,,-99.99,,2013-01-11 01:12:00,
2013-01-10 19:22:00,35.0,35.0,-100.00,SE,125,5.0,8.0,99,0.00,,,-99.99,,2013-01-11 01:22:00,
2013-01-10 19:33:00,36.0,36.0,-100.00,SE,125,4.0,7.0,99,0.00,,,-99.99,,2013-01-11 01:33:00,
2013-01-10 19:43:00,36.0,36.0,-100.00,SE,125,4.0,7.0,99,0.00,,,-99.99,,2013-01-11 01:43:00,
2013-01-10 19:52:00,36.0,36.0,-100.00,ESE,115,6.0,9.0,99,0.00,,,-99.99,,2013-01-11 01:52:00,
2013-01-10 20:02:00,36.0,36.0,-100.00,ESE,115,6.0,9.0,99,0.00,,,-99.99,,2013-01-11 02:02:00,
2013-01-10 20:12:00,36.0,36.0,-100.00,SSE,165,3.0,11.0,99,0.00,,,-99.99,,2013-01-11 02:12:00,
2013-01-10 20:23:00,36.0,36.0,-100.00,ESE,120,4.0,8.0,99,0.00,,,-99.99,,2013-01-11 02:23:00,
2013-01-10 20:33:00,36.0,36.0,-100.00,ESE,110,6.0,10.0,99,0.00,,,-99.99,,2013-01-11 02:33:00,
2013-01-10 20:43:00,36.0,36.0,-100.00,ESE,110,6.0,10.0,99,0.00,,,-99.99,,2013-01-11 02:43:00,
2013-01-10 20:53:00,35.0,35.0,-100.00,SE,125,4.0,7.0,99,0.00,,,-99.99,,2013-01-11 02:53:00,
2013-01-10 21:02:00,35.0,35.0,-100.00,SE,125,4.0,7.0,99,0.00,,,-99.99,,2013-01-11 03:02:00,
2013-01-10 21:12:00,36.0,36.0,-100.00,ESE,120,2.0,9.0,99,0.00,,,-99.99,,2013-01-11 03:12:00,
2013-01-10 21:22:00,36.0,36.0,-100.00,SE,130,1.0,6.0,99,0.00,,,-99.99,,2013-01-11 03:22:00,
2013-01-10 21:33:00,36.0,36.0,-100.00,SSE,165,3.0,6.0,99,0.00,,,-99.99,,2013-01-11 03:33:00,
2013-01-10 21:42:00,36.0,36.0,-100.00,SSE,165,3.0,6.0,99,0.00,,,-99.99,,2013-01-11 03:42:00,
2013-01-10 21:52:00,36.0,36.0,-100.00,SE,135,4.0,6.0,99,0.00,,,-99.99,,2013-01-11 03:52:00,
2013-01-10 22:02:00,36.0,36.0,-100.00,SE,135,4.0,6.0,99,0.00,,,-99.99,,2013-01-11 04:02:00,
2013-01-10 22:12:00,36.0,36.0,-100.00,South,180,3.0,9.0,99,0.00,,,-99.99,,2013-01-11 04:12:00,
2013-01-10 22:22:00,36.0,36.0,-100.00,SE,135,4.0,9.0,99,0.00,,,-99.99,,2013-01-11 04:22:00,
2013-01-10 22:33:00,36.0,36.0,-100.00,South,185,3.0,8.0,99,0.00,,,-99.99,,2013-01-11 04:33:00,
2013-01-10 22:42:00,36.0,36.0,-100.00,South,185,3.0,8.0,99,0.00,,,-99.99,,2013-01-11 04:42:00,
2013-01-10 22:52:00,36.0,36.0,-100.00,SSE,160,2.0,8.0,99,0.00,,,-99.99,,2013-01-11 04:52:00,
2013-01-10 23:03:00,36.0,36.0,-100.00,SSE,160,2.0,8.0,99,0.00,,,-99.99,,2013-01-11 05:03:00,
2013-01-10 23:12:00,36.0,36.0,-100.00,SE,130,4.0,7.0,99,0.00,,,-99.99,,2013-01-11 05:12:00,
2013-01-10 23:22:00,36.0,36.0,-100.00,ENE,65,0.0,7.0,99,0.00,,,-99.99,,2013-01-11 05:22:00,
2013-01-10 23:33:00,36.0,36.0,-100.00,SSW,210,0.0,1.0,99,0.14,,,-99.99,,2013-01-11 05:33:00,
2013-01-10 23:42:00,36.0,36.0,-100.00,SSW,210,0.0,1.0,99,0.14,,,-99.99,,2013-01-11 05:42:00,
2013-01-10 23:52:00,36.0,36.0,-100.00,NE,50,1.0,3.0,99,0.21,,,-99.99,,2013-01-11 05:52:00,